| time (UTC) | temp F | wind direction | speed knots | gust knots | rain 1hr in | rain 24hr in | rain mn in | humidity % | barometer mb |
| 20260510234547 | 63 | 41 | 0.0 | 0.9 | 0.00 | 0.09 | 0.01 | 67 | 1012.5 |
| 20260510234047 | 64 | 41 | 0.9 | 1.7 | 0.00 | 0.10 | 0.01 | 65 | 1012.5 |
| 20260510233529 | 64 | 41 | 0.9 | 1.7 | 0.00 | 0.11 | 0.01 | 65 | 1012.4 |
| 20260510233029 | 64 | 41 | 0.9 | 1.7 | 0.01 | 0.11 | 0.01 | 64 | 1012.4 |
| 20260510232529 | 64 | 40 | 0.9 | 2.6 | 0.01 | 0.13 | 0.01 | 63 | 1012.4 |
| 20260510232029 | 64 | 333 | 0.9 | 2.6 | 0.01 | 0.14 | 0.01 | 65 | 1012.4 |
| 20260510231528 | 65 | 175 | 0.9 | 1.7 | 0.01 | 0.15 | 0.01 | 68 | 1012.3 |
| 20260510231028 | 65 | 26 | 0.9 | 2.6 | 0.01 | 0.17 | 0.01 | 67 | 1012.3 |
| 20260510230528 | 65 | 345 | 0.9 | 2.6 | 0.01 | 0.18 | 0.01 | 71 | 1012.2 |
| 20260510230048 | 65 | 87 | 0.0 | 2.6 | 0.01 | 0.18 | 0.01 | 75 | 1012.1 |
| 20260510225528 | 65 | 101 | 0.9 | 1.7 | 0.01 | 0.21 | 0.01 | 75 | 1011.8 |
| 20260510225028 | 66 | 39 | 0.0 | 2.6 | 0.01 | 0.22 | 0.01 | 74 | 1011.7 |
| 20260510224528 | 67 | 270 | 0.9 | 5.2 | 0.01 | 0.23 | 0.01 | 72 | 1011.6 |
| 20260510224028 | 68 | 32 | 0.9 | 2.6 | 0.00 | 0.23 | 0.01 | 69 | 1011.4 |
| 20260510223547 | 69 | 73 | 0.0 | 2.6 | 0.00 | 0.24 | 0.01 | 66 | 1011.3 |
| 20260510223027 | 69 | 109 | 0.0 | 1.7 | 0.00 | 0.23 | 0.00 | 62 | 1011.2 |
| 20260510222527 | 70 | 150 | 0.0 | 2.6 | 0.00 | 0.24 | 0.00 | 58 | 1011.1 |
| 20260510222026 | 70 | 203 | 0.9 | 7.0 | 0.00 | 0.24 | 0.00 | 57 | 1010.9 |
| 20260510221527 | 71 | 188 | 0.9 | 7.0 | 0.00 | 0.24 | 0.00 | 56 | 1011.0 |
| 20260510221026 | 71 | 263 | 0.0 | 1.7 | 0.00 | 0.24 | 0.00 | 57 | 1010.8 |
| 20260510220526 | 71 | 243 | 0.9 | 2.6 | 0.00 | 0.25 | 0.00 | 55 | 1010.7 |
| 20260510220026 | 71 | 226 | 0.9 | 6.1 | 0.00 | 0.25 | 0.00 | 55 | 1010.7 |
| 20260510215528 | 71 | 287 | 0.9 | 6.1 | 0.00 | 0.26 | 0.00 | 55 | 1010.6 |
| 20260510215028 | 72 | 342 | 0.0 | 2.6 | 0.00 | 0.27 | 0.00 | 55 | 1010.5 |
| 20260510214528 | 72 | 216 | 0.9 | 3.5 | 0.00 | 0.27 | 0.00 | 55 | 1010.6 |
| 20260510214028 | 72 | 208 | 0.9 | 3.5 | 0.00 | 0.28 | 0.00 | 55 | 1010.5 |
| 20260510213528 | 72 | 328 | 1.7 | 5.2 | 0.00 | 0.29 | 0.00 | 54 | 1010.6 |
| 20260510213048 | 72 | 130 | 1.7 | 5.2 | 0.00 | 0.29 | 0.00 | 54 | 1010.6 |
| 20260510212527 | 72 | 173 | 1.7 | 5.2 | 0.00 | 0.29 | 0.00 | 54 | 1010.6 |
| 20260510212027 | 72 | 350 | 0.9 | 3.5 | 0.00 | 0.30 | 0.00 | 55 | 1010.6 |
| 20260510211527 | 72 | 53 | 0.9 | 3.5 | 0.00 | 0.31 | 0.00 | 54 | 1010.6 |
| 20260510211027 | 72 | 153 | 0.9 | 5.2 | 0.00 | 0.31 | 0.00 | 54 | 1010.5 |
| 20260510210527 | 72 | 171 | 1.7 | 5.2 | 0.00 | 0.32 | 0.00 | 54 | 1010.4 |
| 20260510210027 | 72 | 23 | 0.9 | 3.5 | 0.00 | 0.33 | 0.00 | 55 | 1010.5 |
| 20260510205529 | 72 | 212 | 0.9 | 7.8 | 0.00 | 0.35 | 0.00 | 57 | 1010.4 |
| 20260510205028 | 71 | 193 | 1.7 | 7.8 | 0.00 | 0.35 | 0.00 | 57 | 1010.5 |
| 20260510204548 | 71 | 229 | 0.9 | 5.2 | 0.00 | 0.36 | 0.00 | 57 | 1010.5 |
| 20260510204028 | 71 | 235 | 1.7 | 5.2 | 0.00 | 0.36 | 0.00 | 57 | 1010.5 |
| 20260510203528 | 71 | 355 | 0.9 | 3.5 | 0.00 | 0.37 | 0.00 | 57 | 1010.5 |
| 20260510203027 | 72 | 171 | 0.9 | 3.5 | 0.00 | 0.37 | 0.00 | 56 | 1010.5 |
| 20260510202528 | 73 | 269 | 1.7 | 6.1 | 0.00 | 0.37 | 0.00 | 55 | 1010.4 |
| 20260510202028 | 73 | 290 | 0.9 | 3.5 | 0.00 | 0.38 | 0.00 | 55 | 1010.5 |
| 20260510201528 | 73 | 238 | 1.7 | 7.0 | 0.00 | 0.39 | 0.00 | 56 | 1010.4 |
| 20260510201027 | 73 | 243 | 0.9 | 2.6 | 0.00 | 0.40 | 0.00 | 57 | 1010.4 |
| 20260510200550 | 73 | 195 | 1.7 | 9.6 | 0.00 | 0.41 | 0.00 | 56 | 1010.5 |
| 20260510200029 | 73 | 172 | 1.7 | 11.3 | 0.00 | 0.41 | 0.00 | 55 | 1010.6 |
| 20260510195549 | 73 | 120 | 1.7 | 8.7 | 0.00 | 0.41 | 0.00 | 56 | 1010.6 |
| 20260510195034 | 73 | 200 | 0.9 | 3.5 | 0.00 | 0.42 | 0.00 | 55 | 1010.9 |
| 20260510194528 | 73 | 297 | 0.9 | 2.6 | 0.00 | 0.42 | 0.00 | 54 | 1010.9 |
| 20260510194028 | 73 | 288 | 0.9 | 5.2 | 0.00 | 0.42 | 0.00 | 55 | 1011.0 |
| 20260510193548 | 73 | 213 | 0.9 | 2.6 | 0.00 | 0.42 | 0.00 | 56 | 1010.9 |
| 20260510193028 | 73 | 173 | 0.0 | 3.5 | 0.00 | 0.42 | 0.00 | 57 | 1010.9 |
| 20260510192529 | 72 | 179 | 1.7 | 6.1 | 0.00 | 0.42 | 0.00 | 58 | 1011.2 |
| 20260510192028 | 72 | 249 | 0.9 | 6.1 | 0.00 | 0.42 | 0.00 | 57 | 1011.1 |
| 20260510191528 | 73 | 209 | 1.7 | 7.0 | 0.00 | 0.42 | 0.00 | 57 | 1011.1 |
| 20260510191028 | 72 | 192 | 1.7 | 7.0 | 0.00 | 0.42 | 0.00 | 58 | 1011.1 |
| 20260510190548 | 72 | 14 | 0.9 | 7.0 | 0.00 | 0.42 | 0.00 | 59 | 1011.0 |
| 20260510190028 | 71 | 288 | 0.9 | 3.5 | 0.00 | 0.42 | 0.00 | 60 | 1011.1 |
| 20260510185528 | 71 | 303 | 0.9 | 2.6 | 0.00 | 0.42 | 0.00 | 62 | 1011.2 |
| 20260510185028 | 71 | 337 | 0.9 | 6.1 | 0.00 | 0.42 | 0.00 | 62 | 1011.2 |
| 20260510184528 | 70 | 196 | 1.7 | 6.1 | 0.00 | 0.42 | 0.00 | 62 | 1011.2 |
| 20260510184027 | 70 | 333 | 0.9 | 2.6 | 0.00 | 0.42 | 0.00 | 62 | 1011.3 |
| 20260510183527 | 70 | 154 | 0.9 | 7.8 | 0.00 | 0.42 | 0.00 | 63 | 1011.4 |
| 20260510183027 | 70 | 225 | 1.7 | 7.0 | 0.00 | 0.42 | 0.00 | 62 | 1011.4 |
| 20260510182547 | 70 | 268 | 1.7 | 7.0 | 0.00 | 0.42 | 0.00 | 63 | 1011.6 |
| 20260510182027 | 70 | 360 | 0.9 | 5.2 | 0.00 | 0.42 | 0.00 | 66 | 1011.5 |
| 20260510181527 | 69 | 240 | 0.9 | 6.1 | 0.00 | 0.42 | 0.00 | 65 | 1011.7 |
| 20260510181107 | 69 | 111 | 1.7 | 5.2 | 0.00 | 0.42 | 0.00 | 66 | 1011.7 |
| 20260510180527 | 68 | 296 | 0.9 | 3.5 | 0.00 | 0.42 | 0.00 | 66 | 1011.7 |
| 20260510180026 | 68 | 175 | 0.9 | 2.6 | 0.00 | 0.42 | 0.00 | 68 | 1011.8 |
| 20260510175608 | 67 | 172 | 0.0 | 2.6 | 0.00 | 0.42 | 0.00 | 69 | 1011.9 |
| 20260510175028 | 67 | 208 | 0.9 | 2.6 | 0.00 | 0.42 | 0.00 | 70 | 1011.9 |
| 20260510174528 | 67 | 345 | 0.0 | 0.9 | 0.00 | 0.42 | 0.00 | 69 | 1011.9 |
| 20260510174028 | 67 | 348 | 0.0 | 2.6 | 0.00 | 0.42 | 0.00 | 68 | 1012.0 |
| 20260510173528 | 67 | 93 | 0.0 | 2.6 | 0.00 | 0.42 | 0.00 | 67 | 1012.0 |
| 20260510173028 | 68 | 180 | 0.9 | 5.2 | 0.00 | 0.42 | 0.00 | 65 | 1012.1 |
| 20260510172527 | 68 | 210 | 0.9 | 3.5 | 0.00 | 0.42 | 0.00 | 66 | 1012.0 |
| 20260510172048 | 68 | 179 | 0.9 | 7.8 | 0.00 | 0.42 | 0.00 | 66 | 1012.1 |
| 20260510171527 | 68 | 220 | 1.7 | 8.7 | 0.00 | 0.42 | 0.00 | 66 | 1012.2 |
| 20260510171027 | 68 | 218 | 0.9 | 7.8 | 0.00 | 0.42 | 0.00 | 65 | 1012.1 |
| 20260510170527 | 69 | 185 | 0.9 | 5.2 | 0.00 | 0.42 | 0.00 | 65 | 1012.1 |
| 20260510170029 | 68 | 236 | 2.6 | 8.7 | 0.00 | 0.42 | 0.00 | 67 | 1012.1 |
| 20260510165529 | 68 | 187 | 0.9 | 6.1 | 0.00 | 0.42 | 0.00 | 71 | 1012.1 |
| 20260510165048 | 68 | 160 | 2.6 | 8.7 | 0.00 | 0.42 | 0.00 | 68 | 1012.1 |
| 20260510164528 | 69 | 272 | 1.7 | 9.6 | 0.00 | 0.42 | 0.00 | 67 | 1012.2 |
| 20260510164028 | 68 | 158 | 2.6 | 9.6 | 0.00 | 0.42 | 0.00 | 69 | 1012.2 |
| 20260510163528 | 68 | 125 | 2.6 | 7.8 | 0.00 | 0.42 | 0.00 | 70 | 1012.2 |
| 20260510163028 | 67 | 145 | 1.7 | 6.1 | 0.00 | 0.42 | 0.00 | 70 | 1012.4 |
| 20260510162608 | 67 | 187 | 1.7 | 6.1 | 0.00 | 0.42 | 0.00 | 70 | 1012.5 |
| 20260510162048 | 67 | 149 | 1.7 | 6.1 | 0.00 | 0.42 | 0.00 | 70 | 1012.6 |
| 20260510161528 | 67 | 233 | 0.9 | 6.1 | 0.00 | 0.42 | 0.00 | 72 | 1012.6 |
| 20260510161027 | 66 | 195 | 1.7 | 5.2 | 0.00 | 0.42 | 0.00 | 71 | 1012.7 |
| 20260510160527 | 66 | 120 | 0.9 | 3.5 | 0.00 | 0.42 | 0.00 | 73 | 1012.5 |
| 20260510160027 | 66 | 273 | 0.9 | 7.0 | 0.00 | 0.42 | 0.00 | 73 | 1012.6 |
| 20260510155529 | 66 | 281 | 1.7 | 7.0 | 0.00 | 0.42 | 0.00 | 74 | 1012.5 |
| 20260510155029 | 65 | 160 | 1.7 | 6.1 | 0.00 | 0.42 | 0.00 | 72 | 1012.5 |
| 20260510154529 | 65 | 181 | 1.7 | 5.2 | 0.00 | 0.42 | 0.00 | 74 | 1012.6 |
| 20260510154109 | 64 | 184 | 1.7 | 5.2 | 0.00 | 0.42 | 0.00 | 73 | 1012.7 |
| 20260510153528 | 64 | 221 | 1.7 | 5.2 | 0.00 | 0.42 | 0.00 | 74 | 1012.7 |
| 20260510153049 | 64 | 156 | 1.7 | 7.0 | 0.00 | 0.42 | 0.00 | 73 | 1012.7 |
| 20260510152528 | 64 | 205 | 1.7 | 7.0 | 0.00 | 0.42 | 0.00 | 74 | 1012.9 |
| 20260510152028 | 63 | 210 | 0.9 | 3.5 | 0.00 | 0.42 | 0.00 | 75 | 1012.9 |
| 20260510151528 | 62 | 199 | 0.9 | 3.5 | 0.00 | 0.42 | 0.00 | 81 | 1012.8 |
| 20260510151028 | 61 | 139 | 0.9 | 1.7 | 0.00 | 0.42 | 0.00 | 81 | 1012.7 |
| 20260510150527 | 61 | 131 | 0.0 | 0.9 | 0.00 | 0.42 | 0.00 | 82 | 1012.8 |
| 20260510150027 | 60 | 181 | 0.0 | 0.9 | 0.00 | 0.42 | 0.00 | 83 | 1012.8 |
| 20260510145527 | 60 | 182 | 0.0 | 3.5 | 0.00 | 0.43 | 0.00 | 82 | 1012.9 |
| 20260510145027 | 59 | 204 | 0.0 | 3.5 | 0.00 | 0.43 | 0.00 | 81 | 1012.8 |
| 20260510144527 | 59 | 175 | 0.0 | 2.6 | 0.00 | 0.43 | 0.00 | 81 | 1012.9 |
| 20260510144027 | 59 | 244 | 0.9 | 2.6 | 0.00 | 0.43 | 0.00 | 82 | 1013.0 |
| 20260510143547 | 59 | 264 | 0.9 | 3.5 | 0.00 | 0.43 | 0.00 | 81 | 1013.0 |
| 20260510143027 | 60 | 175 | 0.9 | 3.5 | 0.00 | 0.43 | 0.00 | 81 | 1013.0 |
| 20260510142526 | 60 | 181 | 0.9 | 2.6 | 0.00 | 0.43 | 0.00 | 83 | 1013.1 |
| 20260510142026 | 59 | 143 | 0.9 | 3.5 | 0.00 | 0.43 | 0.00 | 83 | 1013.1 |
| 20260510141528 | 60 | 187 | 0.9 | 3.5 | 0.00 | 0.43 | 0.00 | 82 | 1013.1 |
| 20260510141028 | 59 | 173 | 0.0 | 2.6 | 0.00 | 0.43 | 0.00 | 83 | 1013.0 |
| 20260510140528 | 59 | 150 | 0.0 | 1.7 | 0.00 | 0.43 | 0.00 | 82 | 1012.9 |
| 20260510140028 | 59 | 135 | 0.9 | 2.6 | 0.00 | 0.44 | 0.00 | 83 | 1013.0 |
| 20260510135527 | 59 | 206 | 0.9 | 2.6 | 0.00 | 0.44 | 0.00 | 82 | 1012.9 |
| 20260510135027 | 59 | 158 | 0.9 | 2.6 | 0.00 | 0.44 | 0.00 | 83 | 1012.8 |
| 20260510134527 | 59 | 128 | 0.9 | 3.5 | 0.00 | 0.44 | 0.00 | 81 | 1012.8 |
| 20260510134029 | 60 | 133 | 0.9 | 2.6 | 0.00 | 0.44 | 0.00 | 82 | 1012.8 |
| 20260510133549 | 59 | 251 | 0.9 | 3.5 | 0.00 | 0.44 | 0.00 | 83 | 1012.8 |
| 20260510133029 | 59 | 167 | 0.9 | 3.5 | 0.00 | 0.44 | 0.00 | 83 | 1012.8 |
| 20260510132529 | 59 | 177 | 1.7 | 6.1 | 0.00 | 0.44 | 0.00 | 83 | 1012.8 |
| 20260510132028 | 58 | 176 | 0.9 | 1.7 | 0.00 | 0.44 | 0.00 | 87 | 1012.7 |
| 20260510131528 | 57 | 205 | 0.0 | 1.7 | 0.00 | 0.45 | 0.00 | 89 | 1012.7 |
| 20260510131028 | 57 | 215 | 0.0 | 1.7 | 0.00 | 0.45 | 0.00 | 88 | 1012.8 |
| 20260510130528 | 57 | 261 | 0.9 | 2.6 | 0.00 | 0.45 | 0.00 | 89 | 1012.8 |
| 20260510130028 | 56 | 149 | 0.9 | 2.6 | 0.00 | 0.45 | 0.00 | 88 | 1012.7 |
| 20260510125528 | 56 | 158 | 0.9 | 2.6 | 0.00 | 0.45 | 0.00 | 89 | 1012.8 |
| 20260510125028 | 56 | 207 | 0.0 | 1.7 | 0.00 | 0.45 | 0.00 | 91 | 1012.8 |
| 20260510124528 | 55 | 181 | 0.9 | 7.0 | 0.00 | 0.45 | 0.00 | 92 | 1012.8 |
| 20260510124028 | 55 | 188 | 1.7 | 7.0 | 0.00 | 0.45 | 0.00 | 92 | 1013.0 |
| 20260510123527 | 54 | 202 | 0.9 | 7.0 | 0.00 | 0.45 | 0.00 | 92 | 1013.0 |
| 20260510123029 | 54 | 150 | 0.9 | 2.6 | 0.00 | 0.45 | 0.00 | 94 | 1013.1 |
| 20260510122529 | 54 | 69 | 0.9 | 3.5 | 0.00 | 0.45 | 0.00 | 94 | 1013.2 |
| 20260510122029 | 54 | 123 | 0.0 | 0.9 | 0.00 | 0.45 | 0.00 | 94 | 1013.1 |
| 20260510121529 | 54 | 209 | 0.0 | 1.7 | 0.00 | 0.45 | 0.00 | 94 | 1013.0 |
| 20260510121029 | 54 | 235 | 0.0 | 2.6 | 0.00 | 0.45 | 0.00 | 94 | 1013.0 |
| 20260510120528 | 54 | 218 | 0.9 | 2.6 | 0.00 | 0.45 | 0.00 | 95 | 1012.7 |
| 20260510120028 | 53 | 192 | 0.0 | 1.7 | 0.00 | 0.45 | 0.00 | 96 | 1012.8 |
| 20260510115528 | 53 | 171 | 0.9 | 1.7 | 0.00 | 0.45 | 0.00 | 95 | 1012.7 |
| 20260510115028 | 53 | 218 | 0.0 | 1.7 | 0.00 | 0.45 | 0.00 | 95 | 1012.9 |
| 20260510114528 | 53 | 227 | 0.0 | 1.7 | 0.00 | 0.46 | 0.00 | 96 | 1013.0 |
| 20260510114027 | 53 | 207 | 0.9 | 2.6 | 0.00 | 0.46 | 0.00 | 95 | 1012.7 |
| 20260510113527 | 53 | 143 | 0.0 | 2.6 | 0.00 | 0.46 | 0.00 | 95 | 1012.3 |
| 20260510113027 | 53 | 189 | 0.9 | 5.2 | 0.00 | 0.46 | 0.00 | 94 | 1012.4 |
| 20260510112527 | 54 | 215 | 0.9 | 3.5 | 0.00 | 0.46 | 0.00 | 94 | 1012.3 |
| 20260510112109 | 54 | 197 | 1.7 | 5.2 | 0.00 | 0.46 | 0.00 | 93 | 1012.4 |
| 20260510111529 | 54 | 151 | 1.7 | 8.7 | 0.00 | 0.46 | 0.00 | 94 | 1012.4 |
| 20260510111029 | 54 | 144 | 0.9 | 1.7 | 0.00 | 0.46 | 0.00 | 95 | 1012.4 |
| 20260510110529 | 53 | 121 | 0.9 | 2.6 | 0.00 | 0.46 | 0.00 | 96 | 1012.5 |
| 20260510110028 | 53 | 180 | 0.9 | 3.5 | 0.00 | 0.46 | 0.00 | 97 | 1012.5 |
| 20260510105528 | 52 | 162 | 0.9 | 3.5 | 0.00 | 0.46 | 0.00 | 98 | 1012.3 |
| 20260510105028 | 52 | 118 | 1.7 | 2.6 | 0.00 | 0.46 | 0.00 | 98 | 1012.2 |
| 20260510104528 | 52 | 160 | 0.9 | 1.7 | 0.00 | 0.46 | 0.00 | 98 | 1012.3 |
| 20260510104028 | 52 | 190 | 0.0 | 1.7 | 0.00 | 0.46 | 0.00 | 98 | 1012.4 |
| 20260510103528 | 51 | 162 | 0.9 | 2.6 | 0.00 | 0.46 | 0.00 | 97 | 1012.4 |
| 20260510103028 | 51 | 176 | 0.0 | 0.9 | 0.00 | 0.46 | 0.00 | 97 | 1012.6 |
| 20260510102528 | 51 | 176 | 0.0 | 3.5 | 0.00 | 0.46 | 0.00 | 97 | 1012.7 |
| 20260510102048 | 51 | 171 | 0.0 | 3.5 | 0.00 | 0.46 | 0.00 | 98 | 1012.6 |
| 20260510101527 | 51 | 179 | 0.0 | 0.9 | 0.00 | 0.46 | 0.00 | 97 | 1012.5 |
| 20260510101049 | 51 | 181 | 0.0 | 0.9 | 0.00 | 0.46 | 0.00 | 97 | 1012.5 |
| 20260510100529 | 51 | 184 | 0.0 | 1.7 | 0.00 | 0.46 | 0.00 | 97 | 1012.6 |
| 20260510100029 | 51 | 209 | 0.0 | 1.7 | 0.00 | 0.46 | 0.00 | 97 | 1012.7 |
| 20260510095528 | 51 | 172 | 0.9 | 3.5 | 0.00 | 0.46 | 0.00 | 97 | 1012.6 |
| 20260510095049 | 51 | 208 | 0.0 | 1.7 | 0.00 | 0.46 | 0.00 | 97 | 1012.6 |
| 20260510094528 | 51 | 218 | 0.0 | 1.7 | 0.00 | 0.46 | 0.00 | 97 | 1012.5 |
| 20260510094028 | 51 | 187 | 0.9 | 2.6 | 0.00 | 0.46 | 0.00 | 97 | 1012.4 |
| 20260510093528 | 51 | 173 | 0.0 | 3.5 | 0.00 | 0.46 | 0.00 | 98 | 1012.4 |
| 20260510093028 | 51 | 146 | 0.0 | 3.5 | 0.00 | 0.46 | 0.00 | 97 | 1012.2 |
| 20260510092528 | 51 | 0.0 | 0.0 | 0.00 | 0.46 | 0.00 | 97 | 1012.2 | |
| 20260510092028 | 51 | 133 | 0.0 | 1.7 | 0.00 | 0.46 | 0.00 | 97 | 1012.1 |
| 20260510091547 | 51 | 182 | 0.0 | 1.7 | 0.00 | 0.46 | 0.00 | 98 | 1012.1 |
| 20260510091048 | 51 | 255 | 0.0 | 0.9 | 0.00 | 0.46 | 0.00 | 98 | 1012.0 |
| 20260510090609 | 51 | 0.0 | 0.9 | 0.00 | 0.46 | 0.00 | 98 | 1012.0 | |
| 20260510090027 | 51 | 211 | 0.0 | 0.9 | 0.00 | 0.46 | 0.00 | 98 | 1011.9 |
| 20260510085549 | 51 | 0.0 | 0.9 | 0.00 | 0.46 | 0.00 | 98 | 1011.7 | |
| 20260510085029 | 51 | 212 | 0.0 | 0.9 | 0.00 | 0.46 | 0.00 | 98 | 1011.7 |
| 20260510084529 | 52 | 212 | 0.0 | 0.9 | 0.00 | 0.46 | 0.00 | 98 | 1011.8 |
| 20260510084049 | 51 | 213 | 0.0 | 0.9 | 0.00 | 0.46 | 0.00 | 98 | 1011.6 |
| 20260510083528 | 52 | 169 | 0.0 | 5.2 | 0.00 | 0.46 | 0.00 | 98 | 1011.7 |
| 20260510083028 | 52 | 148 | 0.9 | 1.7 | 0.00 | 0.46 | 0.00 | 99 | 1011.7 |
| 20260510082528 | 52 | 126 | 0.0 | 1.7 | 0.00 | 0.46 | 0.00 | 99 | 1011.6 |
| 20260510082028 | 52 | 156 | 0.0 | 0.9 | 0.00 | 0.46 | 0.00 | 99 | 1011.9 |
| 20260510081528 | 52 | 151 | 0.0 | 1.7 | 0.00 | 0.46 | 0.00 | 99 | 1012.0 |
| 20260510081028 | 51 | 184 | 0.0 | 3.5 | 0.00 | 0.46 | 0.00 | 99 | 1012.0 |
| 20260510080527 | 51 | 179 | 0.0 | 2.6 | 0.00 | 0.46 | 0.00 | 99 | 1012.0 |
| 20260510080027 | 51 | 180 | 0.9 | 2.6 | 0.00 | 0.46 | 0.00 | 99 | 1011.9 |
| 20260510075527 | 51 | 145 | 0.0 | 1.7 | 0.00 | 0.46 | 0.00 | 99 | 1011.8 |
| 20260510075027 | 51 | 194 | 0.0 | 0.9 | 0.00 | 0.46 | 0.00 | 99 | 1011.9 |
| 20260510074527 | 51 | 0.0 | 0.0 | 0.00 | 0.46 | 0.00 | 99 | 1011.9 | |
| 20260510074047 | 51 | 195 | 0.0 | 0.9 | 0.00 | 0.46 | 0.00 | 99 | 1011.8 |
| 20260510073529 | 51 | 195 | 0.0 | 0.9 | 0.00 | 0.46 | 0.00 | 99 | 1011.8 |
| 20260510073028 | 51 | 195 | 0.0 | 1.7 | 0.00 | 0.46 | 0.00 | 99 | 1011.6 |
| 20260510072527 | 51 | 195 | 0.9 | 2.6 | 0.00 | 0.46 | 0.00 | 99 | 1011.5 |
| 20260510072027 | 51 | 207 | 0.0 | 0.9 | 0.00 | 0.46 | 0.00 | 99 | 1011.5 |
| 20260510071547 | 51 | 207 | 0.0 | 0.9 | 0.00 | 0.46 | 0.00 | 99 | 1011.3 |
| 20260510071028 | 51 | 197 | 0.0 | 1.7 | 0.00 | 0.46 | 0.00 | 99 | 1011.4 |
| 20260510070528 | 51 | 221 | 0.0 | 2.6 | 0.00 | 0.46 | 0.00 | 99 | 1011.2 |
| 20260510070029 | 51 | 208 | 0.0 | 2.6 | 0.00 | 0.46 | 0.00 | 99 | 1011.2 |
| 20260510065528 | 51 | 191 | 0.9 | 1.7 | 0.00 | 0.46 | 0.00 | 99 | 1011.2 |
| 20260510065028 | 51 | 188 | 0.0 | 0.9 | 0.00 | 0.46 | 0.00 | 99 | 1011.3 |
| 20260510064528 | 51 | 191 | 0.0 | 0.9 | 0.00 | 0.46 | 0.00 | 99 | 1011.3 |
| 20260510064028 | 51 | 190 | 0.0 | 0.9 | 0.00 | 0.46 | 0.00 | 99 | 1011.5 |
| 20260510063528 | 51 | 194 | 0.0 | 3.5 | 0.00 | 0.46 | 0.00 | 99 | 1011.7 |
| 20260510063047 | 51 | 189 | 0.0 | 2.6 | 0.00 | 0.46 | 0.00 | 99 | 1011.7 |
| 20260510062527 | 51 | 179 | 0.0 | 2.6 | 0.00 | 0.46 | 0.00 | 99 | 1011.6 |
| 20260510062027 | 51 | 0.0 | 0.0 | 0.00 | 0.46 | 0.00 | 99 | 1011.7 | |
| 20260510061527 | 51 | 0.0 | 0.0 | 0.00 | 0.46 | 0.00 | 99 | 1011.7 | |
| 20260510061029 | 51 | 0.0 | 0.0 | 0.00 | 0.46 | 0.00 | 99 | 1011.6 | |
| 20260510060549 | 51 | 0.0 | 0.0 | 0.00 | 0.46 | 0.00 | 99 | 1011.5 | |
| 20260510060029 | 51 | 0.0 | 0.0 | 0.00 | 0.46 | 0.00 | 99 | 1011.3 | |
| 20260510055527 | 51 | 0.0 | 0.0 | 0.00 | 0.46 | 0.00 | 99 | 1011.3 | |
| 20260510055027 | 51 | 0.0 | 0.0 | 0.00 | 0.46 | 0.00 | 99 | 1011.4 | |
| 20260510054526 | 51 | 0.0 | 0.0 | 0.00 | 0.46 | 0.00 | 99 | 1011.5 | |
| 20260510054048 | 51 | 0.0 | 0.0 | 0.00 | 0.46 | 0.00 | 99 | 1011.7 | |
| 20260510053528 | 51 | 0.0 | 0.0 | 0.00 | 0.46 | 0.00 | 99 | 1011.7 | |
| 20260510053028 | 51 | 0.0 | 0.0 | 0.00 | 0.46 | 0.00 | 99 | 1011.8 | |
| 20260510052527 | 51 | 0.0 | 0.0 | 0.00 | 0.46 | 0.00 | 99 | 1011.8 | |
| 20260510052108 | 51 | 0.0 | 0.0 | 0.00 | 0.46 | 0.00 | 99 | 1011.7 | |
| 20260510051548 | 51 | 0.0 | 0.0 | 0.00 | 0.46 | 0.00 | 99 | 1011.7 | |
| 20260510051027 | 51 | 0.0 | 0.0 | 0.00 | 0.46 | 0.00 | 99 | 1011.8 | |
| 20260510050527 | 51 | 0.0 | 0.0 | 0.00 | 0.46 | 0.00 | 99 | 1011.8 | |
| 20260510050027 | 51 | 0.0 | 0.0 | 0.00 | 0.46 | 0.00 | 99 | 1011.8 | |
| 20260510045527 | 51 | 0.0 | 0.0 | 0.00 | 0.46 | 0.00 | 99 | 1011.9 | |
| 20260510045027 | 51 | 0.0 | 0.0 | 0.01 | 0.46 | 0.00 | 99 | 1011.9 | |
| 20260510044527 | 51 | 0.0 | 0.0 | 0.01 | 0.46 | 0.00 | 99 | 1011.9 | |
| 20260510044027 | 51 | 0.0 | 0.0 | 0.01 | 0.46 | 0.00 | 98 | 1011.9 | |
| 20260510043547 | 51 | 0.0 | 0.0 | 0.01 | 0.46 | 0.00 | 98 | 1012.0 | |
| 20260510043026 | 51 | 147 | 0.0 | 3.5 | 0.01 | 0.46 | 0.00 | 98 | 1012.0 |
| 20260510042548 | 51 | 172 | 0.9 | 3.5 | 0.01 | 0.46 | 0.00 | 98 | 1011.9 |
| 20260510042028 | 51 | 163 | 0.0 | 2.6 | 0.01 | 0.46 | 0.00 | 98 | 1011.9 |
| 20260510041528 | 51 | 159 | 0.9 | 3.5 | 0.01 | 0.46 | 0.00 | 98 | 1011.7 |
| 20260510041108 | 51 | 118 | 0.9 | 7.8 | 0.01 | 0.46 | 0.00 | 98 | 1011.5 |
| 20260510040548 | 51 | 110 | 0.0 | 0.9 | 0.00 | 0.45 | 0.00 | 98 | 1011.7 |
| 20260510040028 | 51 | 128 | 0.9 | 3.5 | 0.00 | 0.45 | 0.00 | 98 | 1011.8 |
| 20260510035527 | 51 | 154 | 0.9 | 2.6 | 0.00 | 0.45 | 0.45 | 98 | 1011.9 |
| 20260510035027 | 51 | 205 | 0.0 | 0.9 | 0.00 | 0.45 | 0.45 | 98 | 1011.9 |
| 20260510034527 | 51 | 0.0 | 0.0 | 0.00 | 0.45 | 0.45 | 98 | 1012.0 | |
| 20260510034027 | 51 | 0.0 | 0.0 | 0.00 | 0.45 | 0.45 | 98 | 1012.0 | |
| 20260510033527 | 51 | 222 | 0.0 | 0.9 | 0.00 | 0.45 | 0.45 | 97 | 1012.2 |
| 20260510033026 | 52 | 0.0 | 0.0 | 0.00 | 0.45 | 0.45 | 97 | 1012.2 | |
| 20260510032526 | 52 | 222 | 0.0 | 0.9 | 0.00 | 0.45 | 0.45 | 97 | 1012.3 |
| 20260510032026 | 52 | 0.0 | 0.0 | 0.00 | 0.45 | 0.45 | 96 | 1012.2 | |
| 20260510031548 | 52 | 196 | 0.0 | 1.7 | 0.00 | 0.45 | 0.45 | 96 | 1012.2 |
| 20260510031028 | 52 | 134 | 0.0 | 1.7 | 0.00 | 0.45 | 0.45 | 95 | 1012.3 |
| 20260510030528 | 52 | 149 | 0.0 | 2.6 | 0.00 | 0.45 | 0.45 | 95 | 1012.3 |
| 20260510030028 | 52 | 172 | 0.9 | 3.5 | 0.00 | 0.45 | 0.45 | 96 | 1012.3 |
| 20260510025528 | 52 | 124 | 0.9 | 2.6 | 0.00 | 0.45 | 0.45 | 96 | 1012.4 |
| 20260510025027 | 52 | 165 | 0.0 | 3.5 | 0.00 | 0.45 | 0.45 | 96 | 1012.4 |
| 20260510024527 | 52 | 160 | 1.7 | 6.1 | 0.00 | 0.45 | 0.45 | 96 | 1012.3 |
| 20260510024027 | 52 | 171 | 0.9 | 2.6 | 0.00 | 0.45 | 0.45 | 96 | 1012.5 |
| 20260510023527 | 52 | 219 | 0.9 | 3.5 | 0.00 | 0.45 | 0.45 | 96 | 1012.6 |
| 20260510023029 | 52 | 174 | 0.0 | 2.6 | 0.00 | 0.45 | 0.45 | 96 | 1012.5 |
| 20260510022528 | 52 | 122 | 1.7 | 7.0 | 0.00 | 0.45 | 0.45 | 96 | 1012.6 |
| 20260510022028 | 52 | 159 | 0.9 | 7.0 | 0.00 | 0.45 | 0.45 | 96 | 1012.6 |
| 20260510021528 | 52 | 156 | 1.7 | 5.2 | 0.00 | 0.45 | 0.45 | 96 | 1012.6 |
| 20260510021028 | 52 | 188 | 0.9 | 3.5 | 0.00 | 0.45 | 0.45 | 97 | 1012.6 |
| 20260510020528 | 52 | 177 | 2.6 | 8.7 | 0.00 | 0.44 | 0.44 | 97 | 1012.7 |
| 20260510020028 | 52 | 190 | 1.7 | 8.7 | 0.00 | 0.44 | 0.44 | 99 | 1012.7 |
| 20260510015527 | 52 | 152 | 1.7 | 6.1 | 0.00 | 0.44 | 0.44 | 99 | 1012.7 |
| 20260510015048 | 52 | 178 | 1.7 | 7.8 | 0.00 | 0.44 | 0.44 | 99 | 1012.8 |
| 20260510014527 | 52 | 194 | 0.9 | 5.2 | 0.00 | 0.44 | 0.44 | 99 | 1012.8 |
| 20260510014027 | 52 | 133 | 0.9 | 5.2 | 0.00 | 0.44 | 0.44 | 99 | 1012.7 |
| 20260510013527 | 52 | 196 | 0.9 | 2.6 | 0.00 | 0.44 | 0.44 | 99 | 1012.8 |
| 20260510013026 | 51 | 196 | 0.9 | 1.7 | 0.01 | 0.44 | 0.44 | 99 | 1012.9 |
| 20260510012528 | 51 | 157 | 0.0 | 0.9 | 0.01 | 0.44 | 0.44 | 99 | 1012.9 |
| 20260510012028 | 50 | 0.0 | 0.9 | 0.01 | 0.44 | 0.44 | 99 | 1012.7 | |
| 20260510011548 | 50 | 157 | 0.0 | 1.7 | 0.02 | 0.44 | 0.44 | 99 | 1012.7 |
| 20260510011048 | 49 | 0.0 | 0.0 | 0.02 | 0.44 | 0.44 | 99 | 1012.7 | |
| 20260510010527 | 49 | 0.0 | 0.0 | 0.02 | 0.44 | 0.44 | 99 | 1012.7 | |
| 20260510010028 | 49 | 0.0 | 0.0 | 0.03 | 0.44 | 0.44 | 99 | 1012.7 | |
| 20260510005527 | 49 | 0.0 | 0.0 | 0.04 | 0.44 | 0.44 | 99 | 1012.7 | |
| 20260510005029 | 49 | 0.0 | 0.0 | 0.06 | 0.44 | 0.44 | 99 | 1012.7 | |
| 20260510004529 | 49 | 0.0 | 0.0 | 0.07 | 0.44 | 0.44 | 99 | 1012.7 | |
| 20260510004049 | 49 | 0.0 | 0.0 | 0.08 | 0.44 | 0.44 | 99 | 1012.7 | |
| 20260510003549 | 49 | 146 | 0.0 | 0.9 | 0.08 | 0.44 | 0.44 | 99 | 1012.7 |
| 20260510003029 | 49 | 0.0 | 0.0 | 0.09 | 0.44 | 0.44 | 99 | 1012.7 | |
| 20260510002529 | 49 | 0.0 | 0.0 | 0.10 | 0.44 | 0.44 | 99 | 1012.7 | |
| 20260510002028 | 49 | 145 | 0.0 | 0.9 | 0.11 | 0.43 | 0.43 | 99 | 1012.7 |
| 20260510001528 | 49 | 0.0 | 0.0 | 0.12 | 0.43 | 0.43 | 99 | 1012.8 | |
| 20260510001028 | 49 | 0.0 | 0.0 | 0.13 | 0.42 | 0.42 | 99 | 1012.9 | |
| 20260510000528 | 49 | 0.0 | 0.0 | 0.13 | 0.42 | 0.42 | 99 | 1013.0 | |
| 20260510000028 | 49 | 0.0 | 0.0 | 0.14 | 0.42 | 0.42 | 99 | 1013.0 | |
| 20260509235529 | 49 | 137 | 0.0 | 0.9 | 0.15 | 0.40 | 0.40 | 99 | 1013.0 |
| 20260509235028 | 49 | 0.0 | 0.0 | 0.14 | 0.38 | 0.38 | 99 | 1013.1 |